GW3254 Weather Reports


Display with metric or nautical units.
time (UTC)temp
F
wind
direction
speed
MPH
gust
MPH
rain 1hr
in
rain 24hr
in
rain mn
in
humidity
%
barometer
mb
20260507060314 38 338 3.0 6.0 0.00 0.00 0.00 57 1012.3
20260507055811 38 329 5.0 7.0 0.00 0.00 0.00 57 1012.1
20260507055306 37 36 5.0 7.0 0.00 0.00 0.00 56 1012.2
20260507054803 37 326 4.0 6.0 0.00 0.00 0.00 56 1012.2
20260507054259 37 350 3.0 7.0 0.00 0.00 0.00 56 1012.2
20260507053757 37 25 6.0 9.0 0.00 0.00 0.00 56 1012.0
20260507053254 37 93 2.0 5.0 0.00 0.00 0.00 55 1011.9
20260507052753 37 14 3.0 7.0 0.00 0.00 0.00 55 1012.0
20260507052249 37 349 1.0 4.0 0.00 0.00 0.00 55 1011.9
20260507051747 36 0 3.0 5.0 0.00 0.00 0.00 55 1011.9
20260507051244 36 342 1.0 4.0 0.00 0.00 0.00 54 1012.2
20260507050741 36 353 2.0 4.0 0.00 0.00 0.00 54 1011.8
20260507050237 36 319 1.0 4.0 0.00 0.00 0.00 53 1012.0
20260507045734 36 345 0.0 2.0 0.00 0.00 0.00 53 1011.9
20260507045230 36 341 1.0 2.0 0.00 0.00 0.00 53 1012.0
20260507044728 36 131 1.0 3.0 0.00 0.00 0.00 53 1011.9
20260507044224 36 142 2.0 3.0 0.00 0.00 0.00 53 1011.7
20260507043720 36 149 3.0 3.0 0.00 0.00 0.00 53 1011.8
20260507043217 36 164 2.0 3.0 0.00 0.00 0.00 53 1011.7
20260507042714 36 156 1.0 3.0 0.00 0.00 0.00 53 1011.6
20260507042208 36 127 2.0 3.0 0.00 0.00 0.00 53 1011.6
20260507041706 36 155 2.0 3.0 0.00 0.00 0.00 53 1011.5
20260507041203 36 174 1.0 2.0 0.00 0.00 0.00 53 1011.4
20260507040700 37 169 2.0 3.0 0.00 0.00 0.00 53 1011.5
20260507040155 37 116 2.0 3.0 0.00 0.00 0.00 52 1011.4
20260507035652 37 128 2.0 3.0 0.00 0.00 0.00 52 1011.2
20260507035148 37 149 1.0 3.0 0.00 0.00 0.00 52 1011.3
20260507034645 37 153 1.0 3.0 0.00 0.00 0.00 52 1011.5
20260507034142 37 114 1.0 3.0 0.00 0.00 0.00 52 1011.4
20260507033641 37 164 2.0 3.0 0.00 0.00 0.00 52 1011.3
20260507033137 37 95 1.0 2.0 0.00 0.00 0.00 52 1011.4
20260507032635 37 116 1.0 3.0 0.00 0.00 0.00 52 1011.2
20260507032131 37 69 1.0 3.0 0.00 0.00 0.00 52 1011.2
20260507031628 37 137 1.0 2.0 0.00 0.00 0.00 52 1011.3
20260507031124 37 159 2.0 3.0 0.00 0.00 0.00 52 1011.1
20260507030621 37 144 2.0 3.0 0.00 0.00 0.00 52 1011.0
20260507030119 38 209 0.0 2.0 0.00 0.00 0.00 52 1011.1
20260507025616 38 13 0.0 1.0 0.00 0.00 0.00 52 1011.0
20260507025113 38 130 1.0 3.0 0.00 0.00 0.00 52 1010.9
20260507024611 38 135 2.0 3.0 0.00 0.00 0.00 52 1011.0
20260507024108 38 129 0.0 3.0 0.00 0.00 0.00 52 1010.9
20260507023603 38 147 1.0 3.0 0.00 0.00 0.00 52 1011.0
20260507023101 38 157 1.0 3.0 0.00 0.00 0.00 52 1010.7
20260507022557 38 148 1.0 3.0 0.00 0.00 0.00 52 1010.8
20260507022052 39 109 1.0 3.0 0.00 0.00 0.00 51 1011.0
20260507021548 39 128 1.0 3.0 0.00 0.00 0.00 51 1010.8
20260507021045 39 134 0.0 2.0 0.00 0.00 0.00 51 1010.9
20260507020543 39 140 2.0 2.0 0.00 0.00 0.00 51 1010.7
20260507020034 39 127 2.0 2.0 0.00 0.00 0.00 51 1010.8
20260507015532 39 81 1.0 2.0 0.00 0.00 0.00 51 1010.7
20260507015030 39 149 1.0 3.0 0.00 0.00 0.00 51 1010.6
20260507014526 39 129 1.0 3.0 0.00 0.00 0.00 51 1010.6
20260507014021 39 134 2.0 3.0 0.00 0.00 0.00 51 1010.5
20260507013518 39 112 1.0 2.0 0.00 0.00 0.00 51 1010.8
20260507013016 40 149 3.0 3.0 0.00 0.00 0.00 51 1010.5
20260507012513 40 142 2.0 3.0 0.00 0.00 0.00 50 1010.8
20260507012009 40 347 0.0 2.0 0.00 0.00 0.00 50 1010.5
20260507011507 40 141 2.0 2.0 0.00 0.00 0.00 50 1010.4
20260507011002 40 111 2.0 3.0 0.00 0.00 0.00 50 1010.4
20260507010456 40 137 0.0 2.0 0.00 0.00 0.00 50 1010.3
20260507005953 40 100 1.0 3.0 0.00 0.00 0.00 50 1010.3
20260507005451 41 156 2.0 3.0 0.00 0.00 0.00 50 1010.5
20260507004947 41 171 2.0 3.0 0.00 0.00 0.00 50 1010.5
20260507004444 41 132 1.0 3.0 0.00 0.00 0.00 50 1010.2
20260507003942 41 146 2.0 3.0 0.00 0.00 0.00 50 1010.3
20260507003436 41 44 0.0 2.0 0.00 0.00 0.00 50 1010.4
20260507002931 41 152 1.0 3.0 0.00 0.00 0.00 50 1010.3
20260507002428 41 133 2.0 3.0 0.00 0.00 0.00 50 1010.3
20260507001925 41 141 2.0 3.0 0.00 0.00 0.00 49 1010.3
20260507001422 42 163 0.0 2.0 0.00 0.00 0.00 49 1010.1
20260507000920 42 185 0.0 2.0 0.00 0.00 0.00 49 1010.2
20260507000414 42 137 2.0 3.0 0.00 0.00 0.00 49 1010.1
20260506235910 42 123 1.0 2.0 0.00 0.00 0.00 49 1010.1
20260506235408 42 147 0.0 2.0 0.00 0.00 0.00 49 1010.0
20260506234903 42 146 0.0 2.0 0.00 0.00 0.00 49 1010.0
20260506234402 42 132 1.0 4.0 0.00 0.00 0.00 49 1010.0
20260506233859 43 124 1.0 2.0 0.00 0.00 0.00 49 1009.9
20260506233354 43 137 2.0 2.0 0.00 0.00 0.00 49 1010.0
20260506232852 43 166 1.0 3.0 0.00 0.00 0.00 49 1009.9
20260506232348 43 133 2.0 2.0 0.00 0.00 0.00 49 1010.1
20260506231844 43 160 1.0 1.0 0.00 0.00 0.00 49 1010.0
20260506231342 43 145 2.0 3.0 0.00 0.00 0.00 49 1009.9
20260506230839 44 154 2.0 3.0 0.00 0.00 0.00 48 1009.8
20260506230336 44 142 2.0 3.0 0.00 0.00 0.00 48 1009.8
20260506225832 44 168 2.0 3.0 0.00 0.00 0.00 48 1009.9
20260506225329 44 118 2.0 4.0 0.00 0.00 0.00 48 1009.8
20260506224826 44 129 2.0 4.0 0.00 0.00 0.00 48 1009.7
20260506224323 44 36 1.0 3.0 0.00 0.00 0.00 48 1009.8
20260506223820 45 171 3.0 3.0 0.00 0.00 0.00 48 1009.7
20260506223314 45 168 2.0 3.0 0.00 0.00 0.00 48 1009.6
20260506222812 45 164 2.0 3.0 0.00 0.00 0.00 48 1009.6
20260506222307 45 171 0.0 2.0 0.00 0.00 0.00 48 1009.3
20260506221800 45 141 1.0 3.0 0.00 0.00 0.00 48 1009.6
20260506221257 46 151 0.0 3.0 0.00 0.00 0.00 48 1009.6
20260506220755 46 149 3.0 3.0 0.00 0.00 0.00 48 1009.5
20260506220249 46 274 0.0 4.0 0.00 0.00 0.00 48 1009.6
20260506215746 46 119 2.0 3.0 0.00 0.00 0.00 47 1009.6
20260506215242 46 168 3.0 3.0 0.00 0.00 0.00 47 1009.5
20260506214733 46 171 2.0 3.0 0.00 0.00 0.00 47 1009.5
20260506214231 47 169 2.0 3.0 0.00 0.00 0.00 47 1009.4
20260506213729 47 161 2.0 3.0 0.00 0.00 0.00 47 1009.5
20260506213226 47 148 2.0 3.0 0.00 0.00 0.00 47 1009.5
20260506212723 47 152 3.0 3.0 0.00 0.00 0.00 47 1009.5
20260506212218 48 161 0.0 4.0 0.00 0.00 0.00 47 1009.4
20260506211713 48 150 1.0 2.0 0.00 0.00 0.00 47 1009.2
20260506211210 48 153 3.0 3.0 0.00 0.00 0.00 47 1009.4
20260506210708 48 177 1.0 3.0 0.00 0.00 0.00 47 1009.2
20260506210204 48 164 1.0 3.0 0.00 0.00 0.00 47 1009.0
20260506205702 49 174 0.0 2.0 0.00 0.00 0.00 47 1009.2
20260506205201 49 160 0.0 2.0 0.00 0.00 0.00 47 1009.0
20260506204659 49 106 1.0 2.0 0.00 0.00 0.00 46 1009.2
20260506204156 49 161 1.0 2.0 0.00 0.00 0.00 46 1009.1
20260506203654 50 102 1.0 3.0 0.00 0.00 0.00 46 1009.1
20260506203151 50 175 0.0 2.0 0.00 0.00 0.00 46 1009.0
20260506202649 50 141 1.0 3.0 0.00 0.00 0.00 46 1009.1
20260506202144 50 154 2.0 3.0 0.00 0.00 0.00 46 1009.0
20260506201642 50 215 0.0 2.0 0.00 0.00 0.00 46 1009.0
20260506201138 51 163 3.0 3.0 0.00 0.00 0.00 46 1009.1
20260506200635 51 176 3.0 3.0 0.00 0.00 0.00 46 1008.9
20260506200132 51 166 1.0 3.0 0.00 0.00 0.00 46 1008.9
20260506195628 51 141 0.0 1.0 0.00 0.00 0.00 46 1009.0
20260506195125 51 185 0.0 2.0 0.00 0.00 0.00 45 1008.9
20260506194622 52 100 1.0 2.0 0.00 0.00 0.00 45 1009.0
20260506194118 52 260 0.0 2.0 0.00 0.00 0.00 45 1009.0
20260506193616 52 139 1.0 2.0 0.00 0.00 0.00 45 1008.9
20260506193114 52 155 2.0 3.0 0.00 0.00 0.00 45 1008.8
20260506192610 53 144 2.0 2.0 0.00 0.00 0.00 44 1008.6
20260506192106 53 146 2.0 3.0 0.00 0.00 0.00 44 1008.8
20260506191603 53 147 2.0 3.0 0.00 0.00 0.00 44 1008.6
20260506191058 53 105 1.0 2.0 0.00 0.00 0.00 44 1008.6
20260506190556 53 106 0.0 2.0 0.00 0.00 0.00 44 1008.7
20260506190053 54 147 0.0 2.0 0.00 0.00 0.00 44 1008.5
20260506185550 54 126 2.0 3.0 0.00 0.00 0.00 44 1008.7
20260506185047 54 129 1.0 3.0 0.00 0.00 0.00 44 1008.4
20260506184544 54 129 0.0 2.0 0.00 0.00 0.00 43 1008.5
20260506184042 54 153 2.0 3.0 0.00 0.00 0.00 43 1008.2
20260506183537 55 172 2.0 2.0 0.00 0.00 0.00 43 1008.4
20260506183034 55 180 1.0 3.0 0.00 0.00 0.00 43 1008.4
20260506182531 55 169 2.0 3.0 0.00 0.00 0.00 43 1008.3
20260506182028 55 193 2.0 3.0 0.00 0.00 0.00 43 1008.1
20260506181526 55 137 1.0 2.0 0.00 0.00 0.00 43 1008.3
20260506181023 56 168 2.0 3.0 0.00 0.00 0.00 43 1008.0
20260506180520 56 162 1.0 3.0 0.00 0.00 0.00 43 1008.3
20260506180016 56 154 2.0 3.0 0.00 0.00 0.00 44 1008.4
20260506175513 56 141 0.0 1.0 0.00 0.00 0.00 44 1008.3
20260506175009 56 212 0.0 2.0 0.00 0.00 0.00 44 1008.2
20260506174508 57 141 0.0 3.0 0.00 0.00 0.00 44 1008.1
20260506174003 57 195 3.0 5.0 0.00 0.00 0.00 44 1008.1
20260506173502 57 183 2.0 4.0 0.00 0.00 0.00 44 1008.3
20260506172958 57 102 0.0 2.0 0.00 0.00 0.00 44 1008.0
20260506172455 57 195 2.0 7.0 0.00 0.00 0.00 44 1008.3
20260506171951 57 181 3.0 6.0 0.00 0.00 0.00 45 1008.3
20260506171449 57 205 2.0 7.0 0.00 0.00 0.00 44 1008.2
20260506170947 57 187 2.0 7.0 0.00 0.00 0.00 44 1008.4
20260506170443 58 5 1.0 7.0 0.00 0.00 0.00 44 1008.2
20260506165942 58 196 2.0 5.0 0.00 0.00 0.00 44 1008.4
20260506165440 58 189 3.0 6.0 0.00 0.00 0.00 44 1008.5
20260506164936 58 209 2.0 3.0 0.00 0.00 0.00 44 1008.3
20260506164432 58 222 1.0 5.0 0.00 0.00 0.00 43 1008.5
20260506163925 58 214 3.0 5.0 0.00 0.00 0.00 43 1008.2
20260506163419 58 16 0.0 5.0 0.00 0.00 0.00 43 1008.2
20260506162909 58 229 6.0 6.0 0.00 0.00 0.00 43 1008.3
20260506162407 58 256 3.0 4.0 0.00 0.00 0.00 43 1008.3
20260506161904 59 311 2.0 3.0 0.00 0.00 0.00 42 1008.2
20260506161401 59 183 6.0 9.0 0.00 0.00 0.00 42 1008.3
20260506160853 59 260 3.0 10.0 0.00 0.00 0.00 42 1008.4
20260506160349 59 229 9.0 10.0 0.00 0.00 0.00 43 1008.4
20260506155843 58 167 3.0 13.0 0.00 0.00 0.00 43 1008.4
20260506155339 58 207 5.0 11.0 0.00 0.00 0.00 43 1008.5
20260506153456 58 242 3.0 10.0 0.00 0.00 0.00 42 1008.6
20260506152954 58 180 3.0 11.0 0.00 0.00 0.00 42 1008.4
20260506152450 58 267 3.0 7.0 0.00 0.00 0.00 42 1008.3
20260506151949 58 223 7.0 14.0 0.00 0.00 0.00 41 1008.6
20260506151446 58 191 3.0 9.0 0.00 0.00 0.00 43 1008.6
20260506150944 58 202 6.0 12.0 0.00 0.00 0.00 43 1008.6
20260506150439 58 228 2.0 8.0 0.00 0.00 0.00 43 1008.7
20260506145937 58 224 5.0 12.0 0.00 0.00 0.00 43 1008.5
20260506145433 58 250 2.0 9.0 0.00 0.00 0.00 43 1008.5
20260506144930 58 172 7.0 13.0 0.00 0.00 0.00 44 1008.5
20260506144426 57 120 3.0 8.0 0.00 0.00 0.00 44 1008.7
20260506143925 57 147 3.0 8.0 0.00 0.00 0.00 44 1008.5
20260506143422 57 255 4.0 9.0 0.00 0.00 0.00 43 1008.5
20260506142920 57 229 3.0 5.0 0.00 0.00 0.00 44 1008.6
20260506142418 57 292 4.0 12.0 0.00 0.00 0.00 44 1008.6
20260506141916 57 165 7.0 11.0 0.00 0.00 0.00 44 1008.6
20260506141414 57 298 4.0 14.0 0.00 0.00 0.00 44 1008.5
20260506140912 57 167 4.0 8.0 0.00 0.00 0.00 44 1008.4
20260506140408 57 207 7.0 16.0 0.00 0.00 0.00 43 1008.5
20260506135905 56 205 15.0 18.0 0.00 0.00 0.00 44 1008.4
20260506135402 56 182 4.0 16.0 0.00 0.00 0.00 47 1008.7
20260506134858 56 251 2.0 15.0 0.00 0.00 0.00 47 1008.5
20260506134354 56 173 3.0 13.0 0.00 0.00 0.00 47 1008.5
20260506133852 56 217 3.0 7.0 0.00 0.00 0.00 47 1008.7
20260506133348 56 95 1.0 15.0 0.00 0.00 0.00 47 1008.7
20260506132845 55 228 5.0 8.0 0.00 0.00 0.00 48 1008.7
20260506132342 55 155 3.0 7.0 0.00 0.00 0.00 49 1008.7
20260506131840 55 240 4.0 9.0 0.00 0.00 0.00 49 1008.5
20260506131336 54 209 5.0 13.0 0.00 0.00 0.00 49 1008.8
20260506130834 54 275 4.0 9.0 0.00 0.00 0.00 50 1008.8
20260506130330 54 180 7.0 14.0 0.00 0.00 0.00 50 1008.6
20260506125828 54 288 4.0 9.0 0.00 0.00 0.00 50 1008.8
20260506125326 54 256 3.0 9.0 0.00 0.00 0.00 50 1009.1
20260506124824 53 230 7.0 13.0 0.00 0.00 0.00 49 1008.6
20260506124321 53 153 3.0 13.0 0.00 0.00 0.00 49 1008.8
20260506123818 53 191 3.0 10.0 0.00 0.00 0.00 49 1008.7
20260506123317 53 189 3.0 11.0 0.00 0.00 0.00 50 1008.9
20260506122814 52 208 8.0 9.0 0.00 0.00 0.00 51 1008.6
20260506122310 52 239 3.0 14.0 0.00 0.00 0.00 52 1009.0
20260506121809 52 216 4.0 10.0 0.00 0.00 0.00 52 1008.9
20260506121305 51 180 6.0 10.0 0.00 0.00 0.00 53 1008.9
20260506120802 51 218 5.0 7.0 0.00 0.00 0.00 53 1009.0
20260506120300 51 198 7.0 15.0 0.00 0.00 0.00 53 1009.0
20260506115758 51 275 4.0 9.0 0.00 0.00 0.00 54 1009.0
20260506115256 50 277 5.0 10.0 0.00 0.00 0.00 54 1009.0
20260506114753 50 272 4.0 6.0 0.00 0.00 0.00 54 1009.0
20260506114251 50 290 4.0 7.0 0.00 0.00 0.00 54 1008.9
20260506113749 50 340 2.0 10.0 0.00 0.00 0.00 54 1009.0
20260506113246 50 199 3.0 11.0 0.00 0.00 0.00 54 1008.8
20260506112742 50 294 3.0 6.0 0.00 0.00 0.00 54 1009.1
20260506112240 50 204 4.0 10.0 0.00 0.00 0.00 53 1009.1
20260506111737 50 71 2.0 6.0 0.00 0.00 0.00 54 1009.1
20260506111235 50 247 3.0 7.0 0.00 0.00 0.00 54 1009.0
20260506110732 49 173 3.0 9.0 0.00 0.00 0.00 55 1009.0
20260506110230 48 171 3.0 15.0 0.00 0.00 0.00 56 1008.9
20260506105726 48 312 6.0 8.0 0.00 0.00 0.00 57 1008.9
20260506105223 48 213 4.0 8.0 0.00 0.00 0.00 57 1009.0
20260506104721 48 223 3.0 6.0 0.00 0.00 0.00 57 1008.9
20260506104218 48 277 4.0 4.0 0.00 0.00 0.00 57 1009.0
20260506103715 48 260 2.0 8.0 0.00 0.00 0.00 57 1009.1
20260506103212 47 39 0.0 3.0 0.00 0.00 0.00 57 1009.1
20260506102710 47 207 3.0 9.0 0.00 0.00 0.00 57 1009.0
20260506102208 47 205 4.0 5.0 0.00 0.00 0.00 57 1008.9
20260506101704 47 312 3.0 7.0 0.00 0.00 0.00 57 1009.1
20260506101201 46 136 2.0 4.0 0.00 0.00 0.00 57 1009.2
20260506100659 46 264 4.0 6.0 0.00 0.00 0.00 57 1009.2
20260506100157 46 166 6.0 8.0 0.00 0.00 0.00 58 1009.3
20260506095656 46 26 4.0 6.0 0.00 0.00 0.00 58 1009.1
20260506095152 46 210 4.0 6.0 0.00 0.00 0.00 58 1009.2
20260506094649 46 201 5.0 6.0 0.00 0.00 0.00 58 1009.2
20260506094147 45 215 3.0 4.0 0.00 0.00 0.00 58 1009.2
20260506093645 45 249 0.0 4.0 0.00 0.00 0.00 58 1009.2
20260506093142 45 154 2.0 6.0 0.00 0.00 0.00 58 1009.4
20260506092640 45 266 2.0 4.0 0.00 0.00 0.00 59 1009.2
20260506092137 44 289 1.0 7.0 0.00 0.00 0.00 59 1009.3
20260506091634 44 211 2.0 6.0 0.00 0.00 0.00 59 1009.1
20260506091131 44 289 4.0 8.0 0.00 0.00 0.00 60 1009.3
20260506090630 44 334 5.0 6.0 0.00 0.00 0.00 60 1009.2
20260506090126 44 88 7.0 9.0 0.00 0.00 0.00 60 1009.4
20260506085623 43 46 3.0 7.0 0.00 0.00 0.00 60 1009.4
20260506085119 43 336 3.0 5.0 0.00 0.00 0.00 61 1009.4
20260506084616 43 338 3.0 6.0 0.00 0.00 0.00 61 1009.3
20260506084113 43 338 4.0 5.0 0.00 0.00 0.00 61 1009.4
20260506083610 43 289 3.0 6.0 0.00 0.00 0.00 61 1009.6
20260506083107 42 199 5.0 6.0 0.00 0.00 0.00 62 1009.6
20260506082604 42 239 4.0 5.0 0.00 0.00 0.00 61 1009.3
20260506082059 42 310 2.0 8.0 0.00 0.00 0.00 61 1009.6
20260506081558 42 213 2.0 7.0 0.00 0.00 0.00 61 1009.5
20260506081055 41 107 2.0 4.0 0.00 0.00 0.00 61 1009.6
20260506080552 41 17 3.0 7.0 0.00 0.00 0.00 61 1009.5
20260506073033 40 344 3.0 6.0 0.00 0.00 0.00 60 1009.6
20260506072530 40 41 2.0 5.0 0.00 0.00 0.00 60 1009.4
20260506072028 39 49 0.0 4.0 0.00 0.00 0.00 60 1009.7
20260506071525 39 345 0.0 5.0 0.00 0.00 0.00 60 1009.6
20260506071022 39 330 3.0 5.0 0.00 0.00 0.00 60 1009.7
20260506070519 39 13 2.0 4.0 0.00 0.00 0.00 60 1009.8
20260506062457 38 320 2.0 4.0 0.00 0.00 0.00 59 1009.4
20260506061953 38 313 2.0 3.0 0.00 0.00 0.00 59 1009.6
20260506061449 38 320 0.0 2.0 0.00 0.00 0.00 59 1009.7
20260506060947 38 328 0.0 2.0 0.00 0.00 0.00 59 1009.8